Time,TemperatureF,DewpointF,PressureIn,WindDirection,WindDirectionDegrees,WindSpeedMPH,WindSpeedGustMPH,Humidity,HourlyPrecipIn,Conditions,Clouds,dailyrainin,SoftwareType,DateUTC
2013-07-04 00:06:00,91.5,51.8,29.49,West,262,4.0,6.0,26,0.00,,,0.00,Wunderground v.1.15,2013-07-04 07:06:00,
2013-07-04 00:11:00,91.4,52.7,29.49,WSW,255,4.0,4.0,27,0.00,,,0.00,Wunderground v.1.15,2013-07-04 07:11:00,
2013-07-04 00:16:00,91.5,51.8,29.48,WSW,243,4.0,7.0,26,0.00,,,0.00,Wunderground v.1.15,2013-07-04 07:16:00,
2013-07-04 00:21:00,91.2,51.5,29.48,West,273,4.0,4.0,26,0.00,,,0.00,Wunderground v.1.15,2013-07-04 07:21:00,
2013-07-04 00:31:00,90.9,52.3,29.48,West,273,3.0,3.0,27,0.00,,,0.00,Wunderground v.1.15,2013-07-04 07:31:00,
2013-07-04 00:36:00,90.4,51.9,29.48,West,273,2.0,3.0,27,0.00,,,0.00,Wunderground v.1.15,2013-07-04 07:36:00,
2013-07-04 00:41:00,89.9,51.4,29.49,SW,232,1.0,2.0,27,0.00,,,0.00,Wunderground v.1.15,2013-07-04 07:41:00,
2013-07-04 00:46:00,89.7,51.3,29.49,SW,231,2.0,2.0,27,0.00,,,0.00,Wunderground v.1.15,2013-07-04 07:46:00,
2013-07-04 00:56:00,89.6,52.2,29.49,WSW,257,4.0,5.0,28,0.00,,,0.00,Wunderground v.1.15,2013-07-04 07:56:00,
2013-07-04 01:01:00,89.5,52.1,29.49,SW,222,4.0,5.0,28,0.00,,,0.00,Wunderground v.1.15,2013-07-04 08:01:00,
2013-07-04 01:06:00,89.3,52.9,29.49,SW,219,4.0,5.0,29,0.00,,,0.00,Wunderground v.1.15,2013-07-04 08:06:00,
2013-07-04 01:11:00,89.1,52.7,29.49,ESE,114,3.0,5.0,29,0.00,,,0.00,Wunderground v.1.15,2013-07-04 08:11:00,
2013-07-04 01:16:00,87.1,51.9,29.50,ENE,70,3.0,5.0,30,0.00,,,0.00,Wunderground v.1.15,2013-07-04 08:16:00,
2013-07-04 01:26:00,85.5,51.4,29.50,ENE,70,1.0,2.0,31,0.00,,,0.00,Wunderground v.1.15,2013-07-04 08:26:00,
2013-07-04 01:31:00,85.3,52.1,29.50,ENE,69,0.0,1.0,32,0.00,,,0.00,Wunderground v.1.15,2013-07-04 08:31:00,
2013-07-04 01:36:00,85.5,51.4,29.50,West,278,1.0,1.0,31,0.00,,,0.00,Wunderground v.1.15,2013-07-04 08:36:00,
2013-07-04 01:41:00,85.6,51.5,29.50,NW,315,1.0,2.0,31,0.00,,,0.00,Wunderground v.1.15,2013-07-04 08:41:00,
2013-07-04 01:56:00,86.2,52.0,29.51,WNW,297,1.0,2.0,31,0.00,,,0.00,Wunderground v.1.15,2013-07-04 08:56:00,
2013-07-04 02:01:00,86.1,51.9,29.51,NW,311,2.0,2.0,31,0.00,,,0.00,Wunderground v.1.15,2013-07-04 09:01:00,
2013-07-04 02:11:00,85.8,52.5,29.51,NNW,332,1.0,1.0,32,0.00,,,0.00,Wunderground v.1.15,2013-07-04 09:11:00,
2013-07-04 02:21:00,85.9,52.6,29.51,West,278,1.0,1.0,32,0.00,,,0.00,Wunderground v.1.15,2013-07-04 09:21:00,
2013-07-04 02:26:00,86.1,52.8,29.51,WNW,282,0.0,3.0,32,0.00,,,0.00,Wunderground v.1.15,2013-07-04 09:26:00,
2013-07-04 02:31:00,86.7,52.4,29.51,WSW,246,1.0,2.0,31,0.00,,,0.00,Wunderground v.1.15,2013-07-04 09:31:00,
2013-07-04 02:41:00,87.5,52.2,29.50,West,259,5.0,6.0,30,0.00,,,0.00,Wunderground v.1.15,2013-07-04 09:41:00,
2013-07-04 02:51:00,87.5,52.2,29.50,South,190,7.0,7.0,30,0.00,,,0.00,Wunderground v.1.15,2013-07-04 09:51:00,
2013-07-04 02:56:00,86.1,51.9,29.50,SW,229,5.0,7.0,31,0.00,,,0.00,Wunderground v.1.15,2013-07-04 09:56:00,
2013-07-04 03:01:00,85.5,52.3,29.51,WSW,239,3.0,5.0,32,0.00,,,0.00,Wunderground v.1.15,2013-07-04 10:01:00,
2013-07-04 03:11:00,84.9,54.2,29.50,WNW,285,5.0,5.0,35,0.00,,,0.00,Wunderground v.1.15,2013-07-04 10:11:00,
2013-07-04 03:16:00,84.3,55.2,29.50,West,260,4.0,5.0,37,0.00,,,0.00,Wunderground v.1.15,2013-07-04 10:16:00,
2013-07-04 03:21:00,83.8,56.2,29.50,SSW,203,3.0,3.0,39,0.00,,,0.00,Wunderground v.1.15,2013-07-04 10:21:00,
2013-07-04 03:26:00,83.4,56.5,29.50,SW,221,2.0,6.0,40,0.00,,,0.00,Wunderground v.1.15,2013-07-04 10:26:00,
2013-07-04 03:31:00,83.2,57.1,29.50,SW,224,3.0,5.0,41,0.00,,,0.00,Wunderground v.1.15,2013-07-04 10:31:00,
2013-07-04 03:41:00,83.0,56.9,29.50,SW,225,4.0,5.0,41,0.00,,,0.00,Wunderground v.1.15,2013-07-04 10:41:00,
2013-07-04 03:51:00,82.8,57.4,29.50,SW,224,4.0,6.0,42,0.00,,,0.00,Wunderground v.1.15,2013-07-04 10:51:00,
2013-07-04 04:01:00,82.6,57.2,29.50,South,174,6.0,6.0,42,0.00,,,0.00,Wunderground v.1.15,2013-07-04 11:01:00,
2013-07-04 04:11:00,82.2,57.5,29.50,SSW,208,5.0,5.0,43,0.00,,,0.00,Wunderground v.1.15,2013-07-04 11:11:00,
2013-07-04 04:16:00,82.0,57.3,29.51,WSW,246,5.0,5.0,43,0.00,,,0.00,Wunderground v.1.15,2013-07-04 11:16:00,
2013-07-04 04:26:00,81.9,57.2,29.51,SSW,210,4.0,4.0,43,0.00,,,0.00,Wunderground v.1.15,2013-07-04 11:26:00,
2013-07-04 04:36:00,81.7,57.7,29.51,SW,228,4.0,5.0,44,0.00,,,0.00,Wunderground v.1.15,2013-07-04 11:36:00,
2013-07-04 04:41:00,81.6,57.6,29.52,SSW,200,5.0,6.0,44,0.00,,,0.00,Wunderground v.1.15,2013-07-04 11:41:00,
2013-07-04 04:46:00,81.5,58.1,29.52,South,187,5.0,8.0,45,0.00,,,0.00,Wunderground v.1.15,2013-07-04 11:46:00,
2013-07-04 04:56:00,81.3,57.9,29.52,SSE,156,7.0,13.0,45,0.00,,,0.00,Wunderground v.1.15,2013-07-04 11:56:00,
2013-07-04 05:01:00,81.3,57.9,29.52,SW,222,7.0,8.0,45,0.00,,,0.00,Wunderground v.1.15,2013-07-04 12:01:00,
2013-07-04 05:06:00,81.3,57.9,29.52,SSE,158,6.0,8.0,45,0.00,,,0.00,Wunderground v.1.15,2013-07-04 12:06:00,
2013-07-04 05:11:00,81.2,57.8,29.52,WSW,243,6.0,6.0,45,0.00,,,0.00,Wunderground v.1.15,2013-07-04 12:11:00,
2013-07-04 05:16:00,81.1,58.4,29.52,SE,144,6.0,8.0,46,0.00,,,0.00,Wunderground v.1.15,2013-07-04 12:16:00,
2013-07-04 05:21:00,81.0,58.3,29.53,SW,217,6.0,6.0,46,0.00,,,0.00,Wunderground v.1.15,2013-07-04 12:21:00,
2013-07-04 05:36:00,80.8,58.1,29.52,SE,129,7.0,8.0,46,0.00,,,0.00,Wunderground v.1.15,2013-07-04 12:36:00,
2013-07-04 05:41:00,80.8,58.1,29.52,SSW,203,5.0,5.0,46,0.00,,,0.00,Wunderground v.1.15,2013-07-04 12:41:00,
2013-07-04 05:51:00,81.2,58.5,29.52,SSE,148,5.0,7.0,46,0.00,,,0.00,Wunderground v.1.15,2013-07-04 12:51:00,
2013-07-04 05:56:00,81.5,58.1,29.52,South,183,5.0,7.0,45,0.00,,,0.00,Wunderground v.1.15,2013-07-04 12:56:00,
2013-07-04 06:01:00,81.7,58.3,29.52,SSW,195,6.0,6.0,45,0.00,,,0.00,Wunderground v.1.15,2013-07-04 13:01:00,
2013-07-04 06:06:00,81.7,58.3,29.53,SSW,200,6.0,6.0,45,0.00,,,0.00,Wunderground v.1.15,2013-07-04 13:06:00,
2013-07-04 06:16:00,81.9,58.5,29.53,SW,222,7.0,10.0,45,0.00,,,0.00,Wunderground v.1.15,2013-07-04 13:16:00,
2013-07-04 06:21:00,82.0,58.6,29.53,SSW,201,6.0,10.0,45,0.00,,,0.00,Wunderground v.1.15,2013-07-04 13:21:00,
2013-07-04 06:26:00,82.1,58.7,29.53,SSW,193,7.0,10.0,45,0.00,,,0.00,Wunderground v.1.15,2013-07-04 13:26:00,
2013-07-04 06:31:00,82.2,58.7,29.54,SSW,201,7.0,11.0,45,0.00,,,0.00,Wunderground v.1.15,2013-07-04 13:31:00,
2013-07-04 06:41:00,82.5,59.0,29.54,SSW,195,8.0,8.0,45,0.00,,,0.00,Wunderground v.1.15,2013-07-04 13:41:00,
2013-07-04 06:46:00,82.7,59.2,29.54,SSW,203,8.0,8.0,45,0.00,,,0.00,Wunderground v.1.15,2013-07-04 13:46:00,
2013-07-04 06:51:00,82.9,59.4,29.55,SW,225,8.0,9.0,45,0.00,,,0.00,Wunderground v.1.15,2013-07-04 13:51:00,
2013-07-04 07:01:00,83.2,59.0,29.55,SW,214,7.0,7.0,44,0.00,,,0.00,Wunderground v.1.15,2013-07-04 14:01:00,
2013-07-04 07:06:00,83.5,59.3,29.55,SW,219,7.0,7.0,44,0.00,,,0.00,Wunderground v.1.15,2013-07-04 14:06:00,
2013-07-04 07:11:00,83.6,59.4,29.55,SW,225,7.0,7.0,44,0.00,,,0.00,Wunderground v.1.15,2013-07-04 14:11:00,
2013-07-04 07:16:00,84.1,59.2,29.56,SE,138,7.0,10.0,43,0.00,,,0.00,Wunderground v.1.15,2013-07-04 14:16:00,
2013-07-04 07:26:00,84.5,58.9,29.56,South,180,7.0,10.0,42,0.00,,,0.00,Wunderground v.1.15,2013-07-04 14:26:00,
2013-07-04 07:31:00,84.8,59.2,29.56,South,181,7.0,11.0,42,0.00,,,0.00,Wunderground v.1.15,2013-07-04 14:31:00,
2013-07-04 07:36:00,85.1,58.8,29.56,SSW,194,7.0,11.0,41,0.00,,,0.00,Wunderground v.1.15,2013-07-04 14:36:00,
2013-07-04 07:41:00,85.5,59.1,29.57,South,183,6.0,6.0,41,0.00,,,0.00,Wunderground v.1.15,2013-07-04 14:41:00,
2013-07-04 07:51:00,86.4,59.2,29.57,SW,214,6.0,7.0,40,0.00,,,0.00,Wunderground v.1.15,2013-07-04 14:51:00,
2013-07-04 07:56:00,86.5,58.6,29.56,SSE,163,7.0,12.0,39,0.00,,,0.00,Wunderground v.1.15,2013-07-04 14:56:00,
2013-07-04 08:01:00,86.5,58.6,29.56,SW,229,8.0,8.0,39,0.00,,,0.00,Wunderground v.1.15,2013-07-04 15:01:00,
2013-07-04 08:06:00,86.7,58.8,29.56,SW,217,7.0,8.0,39,0.00,,,0.00,Wunderground v.1.15,2013-07-04 15:06:00,
2013-07-04 08:11:00,86.6,58.7,29.56,SSW,206,7.0,9.0,39,0.00,,,0.00,Wunderground v.1.15,2013-07-04 15:11:00,
2013-07-04 08:21:00,87.4,58.7,29.56,SSW,195,7.0,8.0,38,0.00,,,0.00,Wunderground v.1.15,2013-07-04 15:21:00,
2013-07-04 08:26:00,87.9,58.4,29.56,South,186,6.0,8.0,37,0.00,,,0.00,Wunderground v.1.15,2013-07-04 15:26:00,
2013-07-04 08:31:00,87.7,58.2,29.56,SSE,158,6.0,7.0,37,0.00,,,0.00,Wunderground v.1.15,2013-07-04 15:31:00,
2013-07-04 08:46:00,88.5,58.1,29.56,SSE,150,6.0,7.0,36,0.00,,,0.00,Wunderground v.1.15,2013-07-04 15:46:00,
2013-07-04 08:51:00,88.5,58.1,29.55,SSW,208,6.0,6.0,36,0.00,,,0.00,Wunderground v.1.15,2013-07-04 15:51:00,
2013-07-04 08:56:00,88.3,58.0,29.55,SSW,198,7.0,7.0,36,0.00,,,0.00,Wunderground v.1.15,2013-07-04 15:56:00,
2013-07-04 09:06:00,89.2,58.0,29.55,SW,217,5.0,6.0,35,0.00,,,0.00,Wunderground v.1.15,2013-07-04 16:06:00,
2013-07-04 09:11:00,89.2,58.0,29.55,SSW,198,6.0,6.0,35,0.00,,,0.00,Wunderground v.1.15,2013-07-04 16:11:00,
2013-07-04 09:16:00,89.1,57.1,29.55,WNW,298,5.0,6.0,34,0.00,,,0.00,Wunderground v.1.15,2013-07-04 16:16:00,
2013-07-04 09:21:00,89.4,58.1,29.55,SSE,165,4.0,8.0,35,0.00,,,0.00,Wunderground v.1.15,2013-07-04 16:21:00,
2013-07-04 09:26:00,89.5,57.4,29.55,West,280,5.0,8.0,34,0.00,,,0.00,Wunderground v.1.15,2013-07-04 16:26:00,
2013-07-04 09:36:00,90.0,57.9,29.55,SW,224,4.0,10.0,34,0.00,,,0.00,Wunderground v.1.15,2013-07-04 16:36:00,
2013-07-04 09:41:00,90.8,56.9,29.55,SW,224,4.0,4.0,32,0.00,,,0.00,Wunderground v.1.15,2013-07-04 16:41:00,
2013-07-04 09:46:00,90.6,56.7,29.54,WSW,248,4.0,5.0,32,0.00,,,0.00,Wunderground v.1.15,2013-07-04 16:46:00,
2013-07-04 09:51:00,90.6,55.8,29.54,WSW,255,5.0,5.0,31,0.00,,,0.00,Wunderground v.1.15,2013-07-04 16:51:00,
2013-07-04 10:01:00,91.0,56.2,29.54,SSW,203,6.0,7.0,31,0.00,,,0.00,Wunderground v.1.15,2013-07-04 17:01:00,
2013-07-04 10:06:00,91.4,56.5,29.54,SSW,203,7.0,7.0,31,0.00,,,0.00,Wunderground v.1.15,2013-07-04 17:06:00,
2013-07-04 10:11:00,91.2,56.3,29.54,SSW,201,7.0,7.0,31,0.00,,,0.00,Wunderground v.1.15,2013-07-04 17:11:00,
2013-07-04 10:16:00,91.7,56.8,29.54,South,188,6.0,7.0,31,0.00,,,0.00,Wunderground v.1.15,2013-07-04 17:16:00,
2013-07-04 10:21:00,92.6,56.6,29.54,WSW,257,6.0,6.0,30,0.00,,,0.00,Wunderground v.1.15,2013-07-04 17:21:00,
2013-07-04 10:31:00,92.6,56.6,29.54,WSW,257,6.0,8.0,30,0.00,,,0.00,Wunderground v.1.15,2013-07-04 17:31:00,
2013-07-04 10:36:00,92.2,55.4,29.54,WSW,256,7.0,8.0,29,0.00,,,0.00,Wunderground v.1.15,2013-07-04 17:36:00,
2013-07-04 10:41:00,91.8,56.0,29.54,West,271,7.0,7.0,30,0.00,,,0.00,Wunderground v.1.15,2013-07-04 17:41:00,
2013-07-04 10:46:00,92.1,55.3,29.53,WSW,245,6.0,11.0,29,0.00,,,0.00,Wunderground v.1.15,2013-07-04 17:46:00,
2013-07-04 10:51:00,92.7,53.8,29.53,South,190,7.0,7.0,27,0.00,,,0.00,Wunderground v.1.15,2013-07-04 17:51:00,
2013-07-04 11:01:00,92.6,54.7,29.54,WSW,240,8.0,8.0,28,0.00,,,0.00,Wunderground v.1.15,2013-07-04 18:01:00,
2013-07-04 11:06:00,92.3,54.5,29.53,NW,316,8.0,8.0,28,0.00,,,0.00,Wunderground v.1.15,2013-07-04 18:06:00,
2013-07-04 11:16:00,94.2,54.1,29.53,SSW,198,6.0,10.0,26,0.00,,,0.00,Wunderground v.1.15,2013-07-04 18:16:00,
2013-07-04 11:26:00,93.9,53.8,29.53,WSW,238,7.0,13.0,26,0.00,,,0.00,Wunderground v.1.15,2013-07-04 18:26:00,
2013-07-04 11:31:00,94.2,54.1,29.53,SSW,208,7.0,10.0,26,0.00,,,0.00,Wunderground v.1.15,2013-07-04 18:31:00,
2013-07-04 11:36:00,94.2,54.1,29.53,South,172,8.0,11.0,26,0.00,,,0.00,Wunderground v.1.15,2013-07-04 18:36:00,
2013-07-04 11:46:00,95.2,54.9,29.53,SW,217,6.0,9.0,26,0.00,,,0.00,Wunderground v.1.15,2013-07-04 18:46:00,
2013-07-04 11:56:00,95.8,54.3,29.52,NNW,332,5.0,6.0,25,0.00,,,0.00,Wunderground v.1.15,2013-07-04 18:56:00,
2013-07-04 12:01:00,95.2,54.9,29.52,SSW,211,6.0,7.0,26,0.00,,,0.00,Wunderground v.1.15,2013-07-04 19:01:00,
2013-07-04 12:11:00,95.0,53.7,29.52,SSE,162,8.0,8.0,25,0.00,,,0.00,Wunderground v.1.15,2013-07-04 19:11:00,
2013-07-04 12:16:00,96.0,53.4,29.52,SSW,201,7.0,16.0,24,0.00,,,0.00,Wunderground v.1.15,2013-07-04 19:16:00,
2013-07-04 12:21:00,95.7,53.1,29.52,SSW,194,7.0,12.0,24,0.00,,,0.00,Wunderground v.1.15,2013-07-04 19:21:00,
2013-07-04 12:26:00,94.8,53.5,29.52,SW,221,10.0,12.0,25,0.00,,,0.00,Wunderground v.1.15,2013-07-04 19:26:00,
2013-07-04 12:31:00,95.6,53.1,29.52,WSW,242,8.0,8.0,24,0.00,,,0.00,Wunderground v.1.15,2013-07-04 19:31:00,
2013-07-04 12:41:00,96.5,52.6,29.51,WSW,252,5.0,10.0,23,0.00,,,0.00,Wunderground v.1.15,2013-07-04 19:41:00,
2013-07-04 12:46:00,96.4,52.6,29.51,WSW,248,7.0,10.0,23,0.00,,,0.00,Wunderground v.1.15,2013-07-04 19:46:00,
2013-07-04 12:51:00,97.1,53.1,29.50,WSW,239,5.0,18.0,23,0.00,,,0.00,Wunderground v.1.15,2013-07-04 19:51:00,
2013-07-04 13:01:00,96.1,52.3,29.51,NW,304,10.0,10.0,23,0.00,,,0.00,Wunderground v.1.15,2013-07-04 20:01:00,
2013-07-04 13:06:00,96.9,51.8,29.50,South,177,6.0,10.0,22,0.00,,,0.00,Wunderground v.1.15,2013-07-04 20:06:00,
2013-07-04 13:11:00,97.9,52.6,29.49,SSE,160,5.0,7.0,22,0.00,,,0.00,Wunderground v.1.15,2013-07-04 20:11:00,
2013-07-04 13:16:00,98.0,52.7,29.49,WSW,249,6.0,16.0,22,0.00,,,0.00,Wunderground v.1.15,2013-07-04 20:16:00,
2013-07-04 13:26:00,97.9,52.6,29.49,SW,227,8.0,8.0,22,0.00,,,0.00,Wunderground v.1.15,2013-07-04 20:26:00,
2013-07-04 13:31:00,98.4,53.0,29.49,NE,46,6.0,6.0,22,0.00,,,0.00,Wunderground v.1.15,2013-07-04 20:31:00,
2013-07-04 13:36:00,99.1,52.3,29.49,West,261,4.0,6.0,21,0.00,,,0.00,Wunderground v.1.15,2013-07-04 20:36:00,
2013-07-04 13:41:00,98.4,51.7,29.49,SW,235,6.0,6.0,21,0.00,,,0.00,Wunderground v.1.15,2013-07-04 20:41:00,
2013-07-04 13:51:00,97.9,51.3,29.48,SW,221,10.0,10.0,21,0.00,,,0.00,Wunderground v.1.15,2013-07-04 20:51:00,
2013-07-04 13:56:00,98.3,51.7,29.48,SSW,199,9.0,10.0,21,0.00,,,0.00,Wunderground v.1.15,2013-07-04 20:56:00,
2013-07-04 14:01:00,98.7,52.0,29.48,SSW,198,8.0,10.0,21,0.00,,,0.00,Wunderground v.1.15,2013-07-04 21:01:00,
2013-07-04 14:06:00,98.8,52.1,29.47,South,173,7.0,10.0,21,0.00,,,0.00,Wunderground v.1.15,2013-07-04 21:06:00,
2013-07-04 14:16:00,97.6,52.3,29.47,WSW,250,9.0,13.0,22,0.00,,,0.00,Wunderground v.1.15,2013-07-04 21:16:00,
2013-07-04 14:21:00,98.3,52.9,29.46,SSE,167,7.0,7.0,22,0.00,,,0.00,Wunderground v.1.15,2013-07-04 21:21:00,
2013-07-04 14:26:00,98.8,52.1,29.47,WSW,242,7.0,19.0,21,0.00,,,0.00,Wunderground v.1.15,2013-07-04 21:26:00,
2013-07-04 14:31:00,98.0,51.4,29.47,West,274,10.0,10.0,21,0.00,,,0.00,Wunderground v.1.15,2013-07-04 21:31:00,
2013-07-04 14:36:00,98.1,52.8,29.46,SW,229,8.0,10.0,22,0.00,,,0.00,Wunderground v.1.15,2013-07-04 21:36:00,
2013-07-04 14:41:00,98.4,51.7,29.46,SSW,205,6.0,6.0,21,0.00,,,0.00,Wunderground v.1.15,2013-07-04 21:41:00,
2013-07-04 14:51:00,98.4,51.7,29.45,South,174,8.0,12.0,21,0.00,,,0.00,Wunderground v.1.15,2013-07-04 21:51:00,
2013-07-04 14:56:00,98.1,51.5,29.45,West,276,10.0,12.0,21,0.00,,,0.00,Wunderground v.1.15,2013-07-04 21:56:00,
2013-07-04 15:01:00,98.3,51.7,29.45,WSW,250,9.0,17.0,21,0.00,,,0.00,Wunderground v.1.15,2013-07-04 22:01:00,
2013-07-04 15:06:00,98.4,51.7,29.45,South,190,8.0,17.0,21,0.00,,,0.00,Wunderground v.1.15,2013-07-04 22:06:00,
2013-07-04 15:16:00,98.2,51.6,29.45,SSW,207,10.0,10.0,21,0.00,,,0.00,Wunderground v.1.15,2013-07-04 22:16:00,
2013-07-04 15:21:00,98.1,51.5,29.44,West,260,9.0,11.0,21,0.00,,,0.00,Wunderground v.1.15,2013-07-04 22:21:00,
2013-07-04 15:26:00,99.2,52.4,29.44,WSW,245,7.0,11.0,21,0.00,,,0.00,Wunderground v.1.15,2013-07-04 22:26:00,
2013-07-04 15:31:00,99.3,51.2,29.44,WSW,249,6.0,7.0,20,0.00,,,0.00,Wunderground v.1.15,2013-07-04 22:31:00,
2013-07-04 15:41:00,99.2,52.4,29.43,WNW,290,6.0,6.0,21,0.00,,,0.00,Wunderground v.1.15,2013-07-04 22:41:00,
2013-07-04 15:46:00,99.6,51.4,29.43,SW,230,6.0,6.0,20,0.00,,,0.00,Wunderground v.1.15,2013-07-04 22:46:00,
2013-07-04 15:51:00,99.3,51.2,29.43,SW,224,7.0,7.0,20,0.00,,,0.00,Wunderground v.1.15,2013-07-04 22:51:00,
2013-07-04 15:56:00,99.5,51.3,29.43,WNW,290,7.0,7.0,20,0.00,,,0.00,Wunderground v.1.15,2013-07-04 22:56:00,
2013-07-04 16:01:00,99.6,51.4,29.42,WSW,246,6.0,7.0,20,0.00,,,0.00,Wunderground v.1.15,2013-07-04 23:01:00,
2013-07-04 16:11:00,99.6,51.4,29.42,SSW,211,6.0,6.0,20,0.00,,,0.00,Wunderground v.1.15,2013-07-04 23:11:00,
2013-07-04 16:16:00,99.0,50.9,29.43,South,191,7.0,7.0,20,0.00,,,0.00,Wunderground v.1.15,2013-07-04 23:16:00,
2013-07-04 16:21:00,98.9,50.8,29.42,South,172,8.0,8.0,20,0.00,,,0.00,Wunderground v.1.15,2013-07-04 23:21:00,
2013-07-04 16:31:00,99.5,51.3,29.42,North,359,5.0,8.0,20,0.00,,,0.00,Wunderground v.1.15,2013-07-04 23:31:00,
2013-07-04 16:36:00,99.3,51.2,29.42,NNW,347,7.0,15.0,20,0.00,,,0.00,Wunderground v.1.15,2013-07-04 23:36:00,
2013-07-04 16:41:00,99.2,51.1,29.42,WSW,239,8.0,10.0,20,0.00,,,0.00,Wunderground v.1.15,2013-07-04 23:41:00,
2013-07-04 16:46:00,99.0,50.9,29.42,SSW,211,10.0,10.0,20,0.00,,,0.00,Wunderground v.1.15,2013-07-04 23:46:00,
2013-07-04 16:56:00,99.8,51.6,29.41,SW,214,6.0,9.0,20,0.00,,,0.00,Wunderground v.1.15,2013-07-04 23:56:00,
2013-07-04 17:01:00,100.2,50.5,29.41,NNW,338,5.0,5.0,19,0.00,,,0.00,Wunderground v.1.15,2013-07-05 00:01:00,
2013-07-04 17:06:00,100.7,50.9,29.41,WSW,238,4.0,5.0,19,0.00,,,0.00,Wunderground v.1.15,2013-07-05 00:06:00,
2013-07-04 17:11:00,100.3,52.0,29.41,SW,225,4.0,6.0,20,0.00,,,0.00,Wunderground v.1.15,2013-07-05 00:11:00,
2013-07-04 17:21:00,100.0,51.7,29.41,WSW,253,4.0,8.0,20,0.00,,,0.00,Wunderground v.1.15,2013-07-05 00:21:00,
2013-07-04 17:26:00,99.4,51.2,29.41,West,259,6.0,8.0,20,0.00,,,0.00,Wunderground v.1.15,2013-07-05 00:26:00,
2013-07-04 17:31:00,99.0,52.2,29.41,WNW,292,8.0,8.0,21,0.00,,,0.00,Wunderground v.1.15,2013-07-05 00:31:00,
2013-07-04 17:36:00,99.2,52.4,29.40,SSW,198,5.0,8.0,21,0.00,,,0.00,Wunderground v.1.15,2013-07-05 00:36:00,
2013-07-04 17:46:00,99.1,52.3,29.40,West,276,4.0,5.0,21,0.00,,,0.00,Wunderground v.1.15,2013-07-05 00:46:00,
2013-07-04 17:51:00,98.9,52.2,29.40,North,357,6.0,9.0,21,0.00,,,0.00,Wunderground v.1.15,2013-07-05 00:51:00,
2013-07-04 17:56:00,98.5,51.8,29.40,WNW,290,7.0,9.0,21,0.00,,,0.00,Wunderground v.1.15,2013-07-05 00:56:00,
2013-07-04 18:01:00,98.2,51.6,29.41,NNW,330,7.0,7.0,21,0.00,,,0.00,Wunderground v.1.15,2013-07-05 01:01:00,
2013-07-04 18:06:00,98.1,52.8,29.41,NNW,333,6.0,7.0,22,0.00,,,0.00,Wunderground v.1.15,2013-07-05 01:06:00,
2013-07-04 18:16:00,97.8,52.5,29.41,WNW,288,6.0,9.0,22,0.00,,,0.00,Wunderground v.1.15,2013-07-05 01:16:00,
2013-07-04 18:21:00,98.1,52.8,29.42,SW,219,5.0,5.0,22,0.00,,,0.00,Wunderground v.1.15,2013-07-05 01:21:00,
2013-07-04 18:26:00,97.8,52.5,29.42,West,270,4.0,5.0,22,0.00,,,0.00,Wunderground v.1.15,2013-07-05 01:26:00,
2013-07-04 18:31:00,97.3,53.3,29.42,North,5,5.0,10.0,23,0.00,,,0.00,Wunderground v.1.15,2013-07-05 01:31:00,
2013-07-04 18:41:00,96.9,53.0,29.42,NNE,20,5.0,5.0,23,0.00,,,0.00,Wunderground v.1.15,2013-07-05 01:41:00,
2013-07-04 18:46:00,97.0,53.1,29.42,NW,320,4.0,5.0,23,0.00,,,0.00,Wunderground v.1.15,2013-07-05 01:46:00,
2013-07-04 18:51:00,96.7,52.8,29.42,NNW,336,5.0,5.0,23,0.00,,,0.00,Wunderground v.1.15,2013-07-05 01:51:00,
2013-07-04 19:01:00,96.8,52.9,29.42,North,352,3.0,5.0,23,0.00,,,0.00,Wunderground v.1.15,2013-07-05 02:01:00,
2013-07-04 19:06:00,96.6,52.7,29.42,North,4,2.0,6.0,23,0.00,,,0.00,Wunderground v.1.15,2013-07-05 02:06:00,
2013-07-04 19:11:00,96.4,52.6,29.43,NNW,338,3.0,3.0,23,0.00,,,0.00,Wunderground v.1.15,2013-07-05 02:11:00,
2013-07-04 19:16:00,96.3,52.5,29.43,NNW,340,4.0,7.0,23,0.00,,,0.00,Wunderground v.1.15,2013-07-05 02:16:00,
2013-07-04 19:25:00,96.2,53.6,29.43,North,10,4.0,8.0,24,0.00,,,0.00,Wunderground v.1.15,2013-07-05 02:25:00,
2013-07-04 19:30:00,96.1,53.5,29.43,North,349,3.0,3.0,24,0.00,,,0.00,Wunderground v.1.15,2013-07-05 02:30:00,
2013-07-04 19:35:00,95.9,53.3,29.43,North,355,4.0,5.0,24,0.00,,,0.00,Wunderground v.1.15,2013-07-05 02:35:00,
2013-07-04 19:40:00,95.8,53.2,29.43,NW,307,4.0,4.0,24,0.00,,,0.00,Wunderground v.1.15,2013-07-05 02:40:00,
2013-07-04 19:45:00,95.7,53.1,29.43,NW,313,4.0,4.0,24,0.00,,,0.00,Wunderground v.1.15,2013-07-05 02:45:00,
2013-07-04 19:50:00,95.6,53.1,29.43,NW,323,4.0,4.0,24,0.00,,,0.00,Wunderground v.1.15,2013-07-05 02:50:00,
2013-07-04 20:00:00,95.3,52.8,29.44,NNW,340,4.0,4.0,24,0.00,,,0.00,Wunderground v.1.15,2013-07-05 03:00:00,
2013-07-04 20:10:00,95.2,52.7,29.44,NW,315,6.0,6.0,24,0.00,,,0.00,Wunderground v.1.15,2013-07-05 03:10:00,
2013-07-04 20:20:00,95.0,53.7,29.44,NNE,13,4.0,4.0,25,0.00,,,0.00,Wunderground v.1.15,2013-07-05 03:20:00,
2013-07-04 20:25:00,94.9,53.6,29.45,NNW,329,3.0,4.0,25,0.00,,,0.00,Wunderground v.1.15,2013-07-05 03:25:00,
2013-07-04 20:30:00,94.8,53.5,29.45,WNW,289,3.0,3.0,25,0.00,,,0.00,Wunderground v.1.15,2013-07-05 03:30:00,
2013-07-04 20:40:00,94.4,53.2,29.45,NNW,339,3.0,3.0,25,0.00,,,0.00,Wunderground v.1.15,2013-07-05 03:40:00,
2013-07-04 20:45:00,94.3,53.1,29.45,NNW,348,3.0,3.0,25,0.00,,,0.00,Wunderground v.1.15,2013-07-05 03:45:00,
2013-07-04 20:50:00,94.3,53.1,29.46,North,1,3.0,5.0,25,0.00,,,0.00,Wunderground v.1.15,2013-07-05 03:50:00,
2013-07-04 20:55:00,94.3,53.1,29.46,NNW,334,4.0,5.0,25,0.00,,,0.00,Wunderground v.1.15,2013-07-05 03:55:00,
2013-07-04 21:00:00,94.2,53.0,29.46,North,357,3.0,5.0,25,0.00,,,0.00,Wunderground v.1.15,2013-07-05 04:00:00,
2013-07-04 21:05:00,94.2,53.0,29.46,North,358,3.0,7.0,25,0.00,,,0.00,Wunderground v.1.15,2013-07-05 04:05:00,
2013-07-04 21:10:00,94.1,52.9,29.46,NNW,330,4.0,6.0,25,0.00,,,0.00,Wunderground v.1.15,2013-07-05 04:10:00,
2013-07-04 21:15:00,94.0,52.8,29.47,NNE,12,4.0,6.0,25,0.00,,,0.00,Wunderground v.1.15,2013-07-05 04:15:00,
2013-07-04 21:20:00,93.9,52.7,29.47,North,11,3.0,3.0,25,0.00,,,0.00,Wunderground v.1.15,2013-07-05 04:20:00,
2013-07-04 21:25:00,93.8,52.7,29.47,NNW,328,3.0,3.0,25,0.00,,,0.00,Wunderground v.1.15,2013-07-05 04:25:00,
2013-07-04 21:35:00,93.8,52.7,29.47,North,353,4.0,8.0,25,0.00,,,0.00,Wunderground v.1.15,2013-07-05 04:35:00,
2013-07-04 21:40:00,93.7,52.6,29.48,NW,319,5.0,5.0,25,0.00,,,0.00,Wunderground v.1.15,2013-07-05 04:40:00,
2013-07-04 21:45:00,93.6,52.5,29.48,North,358,4.0,6.0,25,0.00,,,0.00,Wunderground v.1.15,2013-07-05 04:45:00,
2013-07-04 21:50:00,93.5,52.4,29.48,NNW,338,4.0,6.0,25,0.00,,,0.00,Wunderground v.1.15,2013-07-05 04:50:00,
2013-07-04 22:00:00,93.4,53.4,29.48,North,6,5.0,9.0,26,0.00,,,0.00,Wunderground v.1.15,2013-07-05 05:00:00,
2013-07-04 22:05:00,93.3,53.3,29.48,NW,315,5.0,9.0,26,0.00,,,0.00,Wunderground v.1.15,2013-07-05 05:05:00,
2013-07-04 22:10:00,93.3,53.3,29.49,NW,326,4.0,5.0,26,0.00,,,0.00,Wunderground v.1.15,2013-07-05 05:10:00,
2013-07-04 22:15:00,93.3,53.3,29.49,NW,314,4.0,6.0,26,0.00,,,0.00,Wunderground v.1.15,2013-07-05 05:15:00,
2013-07-04 22:20:00,93.2,53.2,29.49,West,264,4.0,4.0,26,0.00,,,0.00,Wunderground v.1.15,2013-07-05 05:20:00,
2013-07-04 22:30:00,93.1,53.1,29.50,SSE,153,2.0,2.0,26,0.00,,,0.00,Wunderground v.1.15,2013-07-05 05:30:00,
2013-07-04 22:40:00,92.4,56.5,29.50,SW,214,5.0,8.0,30,0.00,,,0.00,Wunderground v.1.15,2013-07-05 05:40:00,
2013-07-04 22:45:00,92.0,57.0,29.50,SW,222,7.0,8.0,31,0.00,,,0.00,Wunderground v.1.15,2013-07-05 05:45:00,
2013-07-04 22:50:00,91.6,58.4,29.50,NNW,340,8.0,8.0,33,0.00,,,0.00,Wunderground v.1.15,2013-07-05 05:50:00,
2013-07-04 23:00:00,91.2,58.1,29.50,WSW,240,6.0,7.0,33,0.00,,,0.00,Wunderground v.1.15,2013-07-05 06:00:00,
2013-07-04 23:05:00,91.0,58.7,29.50,WSW,250,7.0,8.0,34,0.00,,,0.00,Wunderground v.1.15,2013-07-05 06:05:00,
2013-07-04 23:10:00,90.8,58.6,29.50,SW,229,8.0,8.0,34,0.00,,,0.00,Wunderground v.1.15,2013-07-05 06:10:00,
2013-07-04 23:20:00,90.4,59.0,29.50,WSW,242,7.0,7.0,35,0.00,,,0.00,Wunderground v.1.15,2013-07-05 06:20:00,
2013-07-04 23:25:00,90.2,59.6,29.50,WNW,294,8.0,8.0,36,0.00,,,0.00,Wunderground v.1.15,2013-07-05 06:25:00,
2013-07-04 23:30:00,90.1,59.5,29.50,West,276,8.0,8.0,36,0.00,,,0.00,Wunderground v.1.15,2013-07-05 06:30:00,
2013-07-04 23:35:00,89.9,59.4,29.50,WSW,248,7.0,8.0,36,0.00,,,0.00,Wunderground v.1.15,2013-07-05 06:35:00,
2013-07-04 23:40:00,89.9,59.4,29.50,West,259,6.0,7.0,36,0.00,,,0.00,Wunderground v.1.15,2013-07-05 06:40:00,
2013-07-04 23:50:00,89.6,59.9,29.50,SW,225,7.0,7.0,37,0.00,,,0.00,Wunderground v.1.15,2013-07-05 06:50:00,
2013-07-04 23:55:00,89.5,59.0,29.50,SW,226,8.0,8.0,36,0.00,,,0.00,Wunderground v.1.15,2013-07-05 06:55:00,